Weather History for KFYG - May, 2014

Change the Weather History Date:

Monday, May 12, 2014

  Actual Average (KSTL) Record (KSTL)
Temperature  
Mean Temperature 76 °F 66 °F  
Max Temperature 86 °F 75 °F 92 °F (1956)
Min Temperature 66 °F 56 °F 39 °F (1960)
Degree Days  
Heating Degree Days 0 3  
Month to date heating degree days 43  
Since 1 July heating degree days 4499  
Cooling Degree Days 11 3  
Month to date cooling degree days 30  
Year to date cooling degree days 76  
Growing Degree Days 26 (Base 50)    
Moisture  
Dew Point 71 °F    
Average Humidity 86    
Maximum Humidity 100    
Minimum Humidity 55    
Precipitation  
Precipitation 0.30 in 0.15 in 2.18 in (2002)
Month to date precipitation 1.74  
Year to date precipitation 13.39  
Snow  
Snow 0.00 in 0.00 in 0.00 in (2014)
Month to date snowfall 0.0  
Since 1 July snowfall 17.7  
Snow Depth -    
Sea Level Pressure  
Sea Level Pressure 29.87 in    
Wind  
Wind Speed 10 mph (SSE)    
Max Wind Speed 20 mph    
Max Gust Speed 26 mph    
Visibility 9 miles    
Events Rain , Thunderstorm    
T = Trace of Precipitation, MM = Missing Value Source: NWS Daily Summary

Daily Weather History Graph

Daily Weather History Graph

Search for Another Location

Airport or City:

Trip Planner

Search our weather history database for the weather conditions in past years. The results will help you decide how hot, cold, wet, or windy it might be!

Date:

Astronomy

May. 12, 2014 Rise Set
Actual Time 5:54 AM CDT 8:06 PM CDT
Civil Twilight 5:25 AM CDT 8:35 PM CDT
Nautical Twilight 4:49 AM CDT 9:12 PM CDT
Astronomical Twilight 4:09 AM CDT 9:52 PM CDT
Moon 6:05 PM CDT (5/12) 4:32 AM CDT (5/12)
Length of Visible Light 15h 10m
Length of Day
14h 11m
Waxing Gibbous, 95% of the Moon is Illuminated
May 12
Waxing Gibbous
May 14
Full
May 21
Last Quarter
May 28
New
Jun 5
First Quarter

Hourly Weather History & Observations

Time (CDT) Temp. Heat Index Dew Point Humidity Pressure Visibility Wind Dir Wind Speed Gust Speed Precip Events Conditions
12:15 AM 73.4 °F - 71.6 °F 94% 29.86 in 10.0 mi SSE 8.1 mph - N/A   Clear
12:35 AM 73.4 °F - 71.6 °F 94% 29.87 in 10.0 mi SE 8.1 mph - N/A   Clear
12:55 AM 73.4 °F - 71.6 °F 94% 29.87 in 10.0 mi SSE 8.1 mph - N/A   Clear
1:15 AM 73.4 °F - 71.6 °F 94% 29.86 in 10.0 mi SE 8.1 mph - N/A   Clear
1:35 AM 73.4 °F - 71.6 °F 94% 29.86 in 10.0 mi SE 8.1 mph - N/A   Clear
2:15 AM 71.6 °F - 71.6 °F 100% 29.85 in 10.0 mi SSE 10.4 mph - N/A   Clear
2:35 AM 73.4 °F - 71.6 °F 94% 29.85 in 10.0 mi SSE 11.5 mph - N/A   Clear
2:55 AM 73.4 °F - 71.6 °F 94% 29.85 in 10.0 mi SSE 10.4 mph - N/A   Clear
3:15 AM 73.4 °F - 71.6 °F 94% 29.84 in 10.0 mi SSE 11.5 mph - N/A   Clear
3:35 AM 73.4 °F - 71.6 °F 94% 29.83 in 10.0 mi SSE 11.5 mph - N/A   Clear
3:55 AM 73.4 °F - 71.6 °F 94% 29.82 in 10.0 mi SSE 10.4 mph 17.3 mph N/A   Clear
4:15 AM 71.6 °F - 71.6 °F 100% 29.83 in 10.0 mi SSE 12.7 mph 17.3 mph N/A   Clear
4:35 AM 71.6 °F - 71.6 °F 100% 29.83 in 10.0 mi SSE 11.5 mph - N/A   Clear
4:55 AM 71.6 °F - 71.6 °F 100% 29.84 in 10.0 mi SSE 9.2 mph - N/A   Clear
5:15 AM 71.6 °F - 71.6 °F 100% 29.85 in 10.0 mi SSE 8.1 mph - N/A   Clear
5:35 AM 71.6 °F - 71.6 °F 100% 29.86 in 10.0 mi SSE 9.2 mph - N/A   Partly Cloudy
5:55 AM 71.6 °F - 71.6 °F 100% 29.87 in 10.0 mi SSE 8.1 mph - N/A   Mostly Cloudy
6:15 AM 71.6 °F - 71.6 °F 100% 29.88 in 10.0 mi SSE 6.9 mph - N/A   Mostly Cloudy
6:35 AM 71.6 °F - 71.6 °F 100% 29.89 in 10.0 mi SSE 8.1 mph - N/A   Mostly Cloudy
6:55 AM 73.4 °F - 71.6 °F 94% 29.89 in 10.0 mi SSE 9.2 mph - N/A   Overcast
7:15 AM 73.4 °F - 71.6 °F 94% 29.90 in 10.0 mi SSE 10.4 mph - N/A   Overcast
7:35 AM 73.4 °F - 71.6 °F 94% 29.90 in 10.0 mi South 8.1 mph - N/A   Overcast
7:55 AM 73.4 °F - 69.8 °F 88% 29.91 in 10.0 mi South 6.9 mph - N/A   Overcast
8:15 AM 75.2 °F - 71.6 °F 89% 29.90 in 10.0 mi SSE 10.4 mph - N/A   Overcast
8:35 AM 75.2 °F - 69.8 °F 83% 29.90 in 10.0 mi South 11.5 mph - N/A   Mostly Cloudy
9:15 AM 75.2 °F - 69.8 °F 83% 29.92 in 10.0 mi South 9.2 mph - N/A   Scattered Clouds
9:35 AM 77.0 °F - 71.6 °F 83% 29.91 in 10.0 mi South 12.7 mph 16.1 mph N/A   Scattered Clouds
9:55 AM 77.0 °F - 71.6 °F 83% 29.91 in 10.0 mi South 13.8 mph 20.7 mph N/A   Partly Cloudy
10:15 AM 78.8 °F - 71.6 °F 78% 29.91 in 10.0 mi South 15.0 mph 21.9 mph N/A   Scattered Clouds
10:35 AM 78.8 °F - 71.6 °F 78% 29.91 in 10.0 mi South 16.1 mph - N/A   Partly Cloudy
10:55 AM 80.6 °F 84.6 °F 71.6 °F 74% 29.91 in 10.0 mi South 13.8 mph 20.7 mph N/A   Clear
11:15 AM 80.6 °F 84.6 °F 71.6 °F 74% 29.91 in 10.0 mi SSW 15.0 mph - N/A   Clear
11:35 AM 82.4 °F 87.2 °F 71.6 °F 70% 29.91 in 10.0 mi SSW 11.5 mph 23.0 mph N/A   Partly Cloudy
11:55 AM 82.4 °F 87.2 °F 71.6 °F 70% 29.91 in 10.0 mi South 16.1 mph 24.2 mph N/A   Scattered Clouds
12:55 PM 82.4 °F 87.2 °F 71.6 °F 70% 29.89 in 10.0 mi SSW 12.7 mph 25.3 mph N/A   Partly Cloudy
1:15 PM 84.2 °F 89.6 °F 71.6 °F 66% 29.88 in 10.0 mi South 15.0 mph 20.7 mph N/A   Partly Cloudy
1:35 PM 84.2 °F 89.6 °F 71.6 °F 66% 29.86 in 10.0 mi South 19.6 mph - N/A   Clear
3:15 PM 84.2 °F 89.6 °F 71.6 °F 66% 29.82 in 10.0 mi South 12.7 mph - N/A   Scattered Clouds
3:35 PM 84.2 °F 89.6 °F 71.6 °F 66% 29.81 in 10.0 mi South 15.0 mph 23.0 mph N/A   Scattered Clouds
3:55 PM 86.0 °F 91.8 °F 71.6 °F 62% 29.81 in 10.0 mi South 16.1 mph - N/A   Scattered Clouds
4:15 PM 86.0 °F 89.4 °F 68.0 °F 55% 29.80 in 10.0 mi South 18.4 mph 23.0 mph N/A   Scattered Clouds
4:35 PM 86.0 °F 90.4 °F 69.8 °F 58% 29.80 in 10.0 mi South 16.1 mph 25.3 mph N/A   Partly Cloudy
4:55 PM 84.2 °F 89.6 °F 71.6 °F 66% 29.80 in 10.0 mi SSE 16.1 mph - N/A   Mostly Cloudy
5:15 PM 82.4 °F 87.2 °F 71.6 °F 70% 29.81 in 10.0 mi SSE 17.3 mph 24.2 mph N/A   Scattered Clouds
5:35 PM 82.4 °F 87.2 °F 71.6 °F 70% 29.81 in 10.0 mi SSE 18.4 mph 25.3 mph N/A   Clear
5:55 PM 80.6 °F 84.6 °F 71.6 °F 74% 29.80 in 10.0 mi SSE 15.0 mph 25.3 mph N/A   Partly Cloudy
6:15 PM 80.6 °F 84.6 °F 71.6 °F 74% 29.80 in 10.0 mi SSE 15.0 mph 24.2 mph N/A   Clear
6:35 PM 80.6 °F 84.6 °F 71.6 °F 74% 29.82 in 10.0 mi SSE 16.1 mph - N/A   Clear
6:55 PM 78.8 °F - 71.6 °F 78% 29.82 in 10.0 mi SSE 18.4 mph 23.0 mph N/A   Partly Cloudy
7:15 PM 78.8 °F - 69.8 °F 74% 29.82 in 10.0 mi SSE 17.3 mph 21.9 mph N/A Thunderstorm Partly Cloudy
7:35 PM 77.0 °F - 71.6 °F 83% 29.83 in 10.0 mi South 13.8 mph 19.6 mph N/A   Clear
7:55 PM 77.0 °F - 71.6 °F 83% 29.84 in 10.0 mi South 15.0 mph 19.6 mph N/A   Clear
8:35 PM 77.0 °F - 66.2 °F 69% 29.90 in 10.0 mi WNW 16.1 mph 26.5 mph N/A   Overcast
8:55 PM 69.8 °F - 68.0 °F 94% 29.90 in 1.8 mi NW 10.4 mph 17.3 mph 0.17 in Rain Heavy Rain
9:15 PM 68.0 °F - 68.0 °F 100% 29.91 in 2.5 mi Calm Calm - 0.06 in Rain Light Rain
9:35 PM 68.0 °F - 68.0 °F 100% 29.91 in 4.0 mi Calm Calm - 0.10 in Rain Light Rain
9:55 PM 68.0 °F - 68.0 °F 100% 29.91 in 5.0 mi Calm Calm - 0.11 in Rain Light Rain
10:15 PM 68.0 °F - 68.0 °F 100% 29.91 in 5.0 mi Calm Calm - N/A Rain Light Rain
10:35 PM 68.0 °F - 68.0 °F 100% 29.91 in 5.0 mi SSW 3.5 mph - 0.02 in Rain Light Rain
10:55 PM 68.0 °F - 68.0 °F 100% 29.89 in 4.0 mi ESE 6.9 mph - 0.02 in Rain Light Rain
11:15 PM 68.0 °F - 68.0 °F 100% 29.90 in 9.0 mi SE 4.6 mph - N/A   Mostly Cloudy
11:35 PM 66.2 °F - 66.2 °F 100% 29.90 in 7.0 mi SSE 6.9 mph - N/A Rain Light Rain
11:55 PM 66.2 °F - 66.2 °F 100% 29.92 in 4.0 mi South 6.9 mph - N/A Rain Light Rain